Location: Castelbiague
(43.0361°N, 0.9246°E)
Time: 15:04:36
(UTC+00:00)

Cosmos 2360 Rocket - Pass Details

Date: 17 June 2021
Orbit: 835 x 843 km, 71.0° (Epoch: 31 July)

Event Time Altitude Azimuth Distance (km) Brightness Sun altitude
Rises 21:24:19 0° 207° (SSW) 3,381 5.1 -14.8°
Reaches altitude 10° 21:26:45 10° 208° (SSW) 2,449 4.4 -15.1°
Maximum altitude 21:32:22 78° 295° (WNW) 862 2.3 -15.7°
Drops below altitude 10° 21:38:02 10° 22° (NNE) 2,459 5.1 -16.2°
Sets 21:40:29 0° 24° (NNE) 3,397 5.8 -16.5°
